Regional Weather Roundup
Issued by NWS Midland/Odessa, TX

Home | Current Version | Previous Version | Text Only | Print | Product List | Glossary On
Versions: 1 2 3 4 5 6 7 8 9 10 11 12 13 14 15 16 17 18 19 20 21 22 23 24 25 26 27 28 29 30 31 32 33 34 35 36 37 38 39 40 41 42 43 44 45 46 47 48 49 50
000
ASUS44 KMAF 231010
RWRMAF
MIDLAND AREA WEATHER ROUNDUP
NATIONAL WEATHER SERVICE MIDLAND TX
500 AM CDT SAT MAY 23 2015

...IN SOUTHWEST TEXAS AND SOUTHEAST NEW MEXICO...

CITY           SKY/WX    TMP DP  RH WIND       PRES   REMARKS
ALPINE         MOCLDY    65  55  69 S10       30.11S
ANDREWS        FAIR      66  66 100 SE9       29.96F
ARTESIA        PTCLDY    64  64 100 S10       29.93S FOG
BIG SPRING     CLOUDY    74  68  80 S8        30.00R
CARLSBAD       MOCLDY    66  63  90 S7        29.91F
DRYDEN           N/A     72  61  68 S13       29.94S
FORT STOCKTON  CLOUDY    73  55  53 S16G25    29.93R
GUAD PASS      PTCLDY    60  56  86 SW12      30.05S
HOBBS          CLOUDY    64  64 100 SE10G20   29.97S
MARFA          MOCLDY    63  55  77 SE9       30.11R
MIDLAND AIRPK  CLOUDY    71  66  84 S13       29.96F
MIDLAND INTL   CLOUDY    69  65  86 S12       29.95F
ODESSA         CLOUDY    69  64  84 S9        29.96S
PECOS          MOCLDY    65  60  84 SW6       29.91R
PRESIDIO       FAIR      81  43  25 SE5       29.96R
SEMINOLE       CLOUDY    66  65  96 SE13      29.96F
SNYDER         CLOUDY    69  67  93 SE10      29.99F
WINK           PTCLDY    69  63  81 SE12      29.91S
$$
...OTHER STATIONS IN TEXAS...

CITY           SKY/WX    TMP DP  RH WIND       PRES   REMARKS
ABILENE        MOCLDY    72  68  87 SE18      30.00S
AMARILLO       FOG       57  57 100 SE17      29.98F VSB 1/2
AUSTIN         CLOUDY    73  72  96 SE5       30.07R
BROWNSVILLE    MOCLDY    79  76  90 SE13      30.01S
CORPUS CHRISTI CLOUDY    78  75  90 SE13      30.03S
DALLAS FTW     CLOUDY    68  67  96 SE10      30.08F
DEL RIO        CLOUDY    76  73  91 SE14      29.95R
EL PASO        CLOUDY    70  23  17 W7        29.96S
HOUSTON INT    MOCLDY    74  73  97 E7        30.10R
LUBBOCK        CLOUDY    65  65 100 SE17G25   29.97F
SAN ANGELO     CLOUDY    73  69  87 SE9       29.97S
SAN ANTONIO    CLOUDY    76  72  87 SE9       30.06R
WACO           LGT RAIN  71  69  93 SE9       30.07F FOG
WICHITA FALLS  NOT AVBL
$$
...OTHER LOCATIONS IN NEW MEXICO...

CITY           SKY/WX    TMP DP  RH WIND       PRES   REMARKS
ALAMAGORDO     MOCLDY    57  30  35 E5        29.97S
ALBUQUERQUE    PTCLDY    52  30  43 E3        30.01R
CANNON AFB     TSTM      52  52  99 NE9       29.98R
CLOVIS         CLOUDY    59  57  94 S14       29.95R THUNDER
HOLLOMAN AFB   MOCLDY    63  30  28 SW15      29.94S
ROSWELL        MOCLDY    66  63  90 S12       29.92S
RUIDOSO        CLEAR     50  27  40 SW5       30.09S
SANTA FE       PTCLDY    49  45  86 S6        30.00S
TRUTH OR CONSE PTCLDY    57  25  29 VRB3      29.97R
TUCUMCARI      CLOUDY    54  51  90 E7        29.92F
$$


USA.gov is the U.S. government's official web portal to all federal, state and local government web resources and services.